CW7977 Corfu GR current weather conditions

sailwx.info

Wind from 118 at 2 knots gusting 2

Air temperature 20.0° C
Dewpoint 18.7° C

Last reported at 2014-Sep-03 06:47 UTC.
Time now 2014-Sep-03 07:07 UTC

Location: N 39°37' E 019°54'.
View on Google Maps.

See reports from other nearby stations

  
Tides and Currents Weather Stations Pressure Air Temp Water Temp Dewpoint Dewpoint Depression Visibility Wind Speed Wind Dir Waves Ship Positions
date/time (UTC)wind fromknots sea level pressurealtimeterstation pressurevisibilityair tempwater tempwave heightnotes
2014-Sep-03 06:47 118 2 gusting 2 20.0
2014-Sep-03 06:37 103 19.4
2014-Sep-03 06:27 160 19.4
2014-Sep-03 06:17 180 18.9
2014-Sep-03 06:07 195 18.3
2014-Sep-03 05:57 225 18.3
2014-Sep-03 05:47 245 18.3
2014-Sep-03 05:37 225 17.8
2014-Sep-03 05:27 225 0 gusting 2 17.8
2014-Sep-03 05:17 225 17.8
2014-Sep-03 05:07 225 17.8
2014-Sep-03 04:57 242 17.2
2014-Sep-03 04:47 248 17.2
2014-Sep-03 04:37 233 17.2
2014-Sep-03 04:27 245 17.2
2014-Sep-03 04:17 248 17.2
2014-Sep-03 04:07 248 17.2
2014-Sep-03 03:57 248 0 gusting 1 17.2
2014-Sep-03 03:47 248 0 gusting 0 17.2
2014-Sep-03 03:37 225 17.2
2014-Sep-03 03:27 202 17.2
2014-Sep-03 03:17 248 17.2
2014-Sep-03 03:07 248 17.2
2014-Sep-03 02:57 226 0 gusting 5 17.2
2014-Sep-03 02:47 248 17.2
2014-Sep-03 02:37 254 0 gusting 2 17.2
2014-Sep-03 02:27 248 0 gusting 1 17.8
2014-Sep-03 02:17 248 17.8
2014-Sep-03 02:07 248 17.8
2014-Sep-03 01:57 225 17.8
2014-Sep-03 01:47 225 0 gusting 2 17.8
2014-Sep-03 01:37 292 17.8
2014-Sep-03 01:27 270 17.8
2014-Sep-03 01:17 263 17.8
2014-Sep-03 01:07 248 17.8
2014-Sep-03 00:57 248 17.8
2014-Sep-03 00:47 248 17.8
2014-Sep-03 00:37 248 17.8
2014-Sep-03 00:27 225 0 gusting 2 17.8
2014-Sep-03 00:17 248 17.8
2014-Sep-03 00:07 248 18.3
2014-Sep-02 23:57 315 18.3
2014-Sep-02 23:47 315 18.3
2014-Sep-02 23:37 250 0 gusting 2 18.3
2014-Sep-02 23:27 225 18.3
2014-Sep-02 23:17 225 18.3
2014-Sep-02 23:07 225 0 gusting 4 18.3
2014-Sep-02 22:57 292 18.3
2014-Sep-02 22:47 292 18.3
2014-Sep-02 22:37 292 0 gusting 1 18.3
2014-Sep-02 22:27 202 18.9
2014-Sep-02 22:17 202 18.9
2014-Sep-02 22:07 226 1 gusting 2 18.9
2014-Sep-02 21:57 248 18.9
2014-Sep-02 21:47 248 18.9
2014-Sep-02 21:37 207 18.9
2014-Sep-02 21:27 108 1 gusting 4 18.9
2014-Sep-02 21:17 135 1 gusting 4 18.9
2014-Sep-02 21:07 135 0 gusting 2 18.9
2014-Sep-02 20:57 294 2 gusting 4 18.9
2014-Sep-02 20:47 143 5 gusting 12 19.4
2014-Sep-02 20:37 158 0 gusting 4 19.4
2014-Sep-02 20:27 212 19.4
2014-Sep-02 20:17 225 0 gusting 7 19.4
2014-Sep-02 20:07 219 0 gusting 4 19.4
2014-Sep-02 19:57 215 19.4
2014-Sep-02 19:47 158 19.4
2014-Sep-02 19:37 202 19.4
2014-Sep-02 19:27 202 0 gusting 2 19.4
2014-Sep-02 19:17 173 1 gusting 6 19.4
2014-Sep-02 19:07 170 3 gusting 6 19.4
2014-Sep-02 18:57 158 2 gusting 6 19.4
2014-Sep-02 18:47 159 2 gusting 6 19.4
2014-Sep-02 18:37 147 2 gusting 6 19.4
2014-Sep-02 18:27 135 1 gusting 2 19.4
2014-Sep-02 18:17 180 0 gusting 5 19.4
2014-Sep-02 18:07 206 1 gusting 10 19.4
2014-Sep-02 17:57 149 4 gusting 6 19.4
2014-Sep-02 17:47 131 4 gusting 6 19.4
2014-Sep-02 17:37 170 3 gusting 8 20.0
2014-Sep-02 17:27 135 5 gusting 8 20.0
2014-Sep-02 17:17 140 5 gusting 8 20.0
2014-Sep-02 17:07 131 6 gusting 10 19.4
2014-Sep-02 16:57 144 6 gusting 11 20.0
2014-Sep-02 16:47 126 2 gusting 7 20.0
2014-Sep-02 16:37 146 4 gusting 7 20.0
2014-Sep-02 16:27 137 2 gusting 11 20.0
2014-Sep-02 16:17 113 1 gusting 11 20.0
2014-Sep-02 16:07 131 6 gusting 13 20.0
2014-Sep-02 15:57 119 5 gusting 11 20.0
2014-Sep-02 15:47 132 6 gusting 13 20.0
2014-Sep-02 15:37 126 6 gusting 13 20.0
2014-Sep-02 15:27 135 5 gusting 10 20.0
2014-Sep-02 15:17 149 5 gusting 12 20.0
2014-Sep-02 15:07 147 5 gusting 12 20.0
2014-Sep-02 14:57 132 6 gusting 13 19.4
2014-Sep-02 14:47 133 6 gusting 11 19.4
2014-Sep-02 14:37 141 6 gusting 11 19.4
2014-Sep-02 14:27 181 3 gusting 7 19.4
2014-Sep-02 14:17 142 5 gusting 8 19.4
2014-Sep-02 14:07 160 5 gusting 10 19.4
2014-Sep-02 13:57 129 6 gusting 13 20.0
2014-Sep-02 13:47 143 4 gusting 12 20.0
2014-Sep-02 13:37 139 7 gusting 11 20.6
2014-Sep-02 13:27 158 3 gusting 7 20.6
2014-Sep-02 13:17 157 2 gusting 6 20.6
2014-Sep-02 13:07 155 2 gusting 5 20.6
2014-Sep-02 12:57 145 1 gusting 7 20.6
2014-Sep-02 12:47 159 2 gusting 5 20.6
2014-Sep-02 12:37 162 2 gusting 5 20.6
2014-Sep-02 12:27 155 3 gusting 6 20.6
2014-Sep-02 12:17 137 4 gusting 11 20.6
2014-Sep-02 12:07 132 3 gusting 6 20.0
2014-Sep-02 11:57 155 2 gusting 6 20.0
2014-Sep-02 11:47 144 5 gusting 8 20.0
2014-Sep-02 11:37 157 4 gusting 12 19.4
2014-Sep-02 11:27 145 5 gusting 13 19.4
2014-Sep-02 11:17 149 5 gusting 12 19.4
2014-Sep-02 11:07 166 2 gusting 8 19.4
2014-Sep-02 10:57 148 5 gusting 13 20.0
2014-Sep-02 10:47 166 7 gusting 13 20.0
2014-Sep-02 10:37 144 6 gusting 13 20.0
2014-Sep-02 10:27 153 6 gusting 13 20.0
2014-Sep-02 10:17 178 6 gusting 13 20.0
2014-Sep-02 10:07 148 4 gusting 6 20.0
2014-Sep-02 09:57 196 4 gusting 6 19.4
2014-Sep-02 09:47 135 0 gusting 8 18.9
2014-Sep-02 09:37 268 5 gusting 11 19.4
2014-Sep-02 09:27 301 3 gusting 12 20.0
2014-Sep-02 09:17 275 4 gusting 12 20.6
2014-Sep-02 09:07 303 4 gusting 10 21.7
2014-Sep-02 08:57 270 0 gusting 5 22.2
2014-Sep-02 08:47 309 2 gusting 8 22.8
2014-Sep-02 08:37 247 4 gusting 8 23.3
2014-Sep-02 08:27 216 0 gusting 8 23.3
2014-Sep-02 08:17 159 5 gusting 15 23.9
2014-Sep-02 08:07 137 7 gusting 14 23.9
2014-Sep-02 07:57 137 8 gusting 13 24.4
2014-Sep-02 07:47 145 7 gusting 10 24.4
2014-Sep-02 07:37 131 8 gusting 12 23.9
2014-Sep-02 07:27 127 5 gusting 12 23.9
2014-Sep-02 07:17 131 6 gusting 10 23.9
2014-Sep-02 07:07 137 6 gusting 10 23.3
2014-Sep-02 06:57 134 6 gusting 8 23.3
2014-Sep-02 06:47 127 5 gusting 12 23.3
2014-Sep-02 06:37 137 5 gusting 10 22.8
2014-Sep-02 06:27 145 5 gusting 11 22.8
2014-Sep-02 06:17 130 6 gusting 12 22.8
2014-Sep-02 06:07 146 5 gusting 11 22.8
2014-Sep-02 05:57 166 3 gusting 7 22.2
2014-Sep-02 05:47 162 0 gusting 6 22.2
2014-Sep-02 05:37 230 0 gusting 5 22.2
2014-Sep-02 05:27 195 1 gusting 4 21.7
2014-Sep-02 05:17 169 2 gusting 6 21.7
2014-Sep-02 05:07 129 2 gusting 6 21.7
2014-Sep-02 04:57 124 1 gusting 6 21.7
2014-Sep-02 04:47 138 4 gusting 6 21.7
2014-Sep-02 04:37 137 1 gusting 5 21.7
2014-Sep-02 04:27 139 0 gusting 2 21.7
2014-Sep-02 04:17 135 1 gusting 6 21.1
2014-Sep-02 04:07 135 1 gusting 6 21.7
2014-Sep-02 03:57 176 1 gusting 6 21.7
2014-Sep-02 03:47 154 3 gusting 7 21.7
2014-Sep-02 03:37 139 4 gusting 8 21.7
2014-Sep-02 03:27 144 2 gusting 11 21.7
2014-Sep-02 03:17 146 3 gusting 6 21.7
2014-Sep-02 03:07 158 0 gusting 2 21.7
2014-Sep-02 02:57 150 0 gusting 1 21.7
2014-Sep-02 02:47 022 0 gusting 1 21.7
2014-Sep-02 02:37 293 0 gusting 4 21.7
2014-Sep-02 02:27 068 1 gusting 5 21.1
2014-Sep-02 02:17 065 0 gusting 5 21.1
2014-Sep-02 02:07 042 1 gusting 2 21.1
2014-Sep-02 01:57 022 21.1
2014-Sep-02 01:47 015 0 gusting 2 21.1
2014-Sep-02 01:37 352 0 gusting 4 21.1
2014-Sep-02 01:27 182 21.1
2014-Sep-02 01:17 202 21.1
2014-Sep-02 01:07 203 0 gusting 4 21.1
2014-Sep-02 00:57 229 4 gusting 13 21.1
2014-Sep-02 00:47 224 5 gusting 8 21.7
2014-Sep-02 00:37 255 5 gusting 8 22.2
2014-Sep-02 00:27 206 2 gusting 10 22.2
2014-Sep-02 00:17 250 6 gusting 14 22.8
2014-Sep-02 00:07 190 7 gusting 18 22.8
2014-Sep-01 23:57 180 9 gusting 18 22.8
2014-Sep-01 23:47 172 11 gusting 14 22.8
2014-Sep-01 23:37 155 7 gusting 17 22.8
2014-Sep-01 23:27 159 8 gusting 17 22.8
2014-Sep-01 23:17 168 6 gusting 14 22.8
2014-Sep-01 23:07 161 8 gusting 19 22.8
2014-Sep-01 22:57 156 9 gusting 14 22.2
2014-Sep-01 22:47 162 7 gusting 13 22.2
2014-Sep-01 22:37 160 10 gusting 15 22.2
2014-Sep-01 22:27 163 8 gusting 19 21.7
2014-Sep-01 22:17 144 5 gusting 18 21.7
2014-Sep-01 22:07 142 8 gusting 26 22.2
2014-Sep-01 21:57 118 8 gusting 19 22.2
2014-Sep-01 21:47 123 12 gusting 25 21.7
2014-Sep-01 21:37 172 13 gusting 26 21.7
2014-Sep-01 21:27 147 7 gusting 25 21.7
2014-Sep-01 21:17 147 11 gusting 20 22.2
2014-Sep-01 21:07 170 9 gusting 21 22.2
2014-Sep-01 20:57 156 12 gusting 44 22.2
2014-Sep-01 20:47 171 11 gusting 18 22.8
2014-Sep-01 20:37 230 3 gusting 12 23.3
2014-Sep-01 20:27 309 6 gusting 15 24.4
2014-Sep-01 20:17 186 8 gusting 24 25.0
2014-Sep-01 20:07 122 9 gusting 19 25.0
2014-Sep-01 19:57 156 11 gusting 22 25.0
2014-Sep-01 19:47 124 10 gusting 24 25.0
2014-Sep-01 19:37 160 9 gusting 17 25.0
2014-Sep-01 19:27 150 7 gusting 19 25.0
2014-Sep-01 19:17 142 9 gusting 19 25.0
2014-Sep-01 19:07 141 11 gusting 17 25.6
2014-Sep-01 18:57 131 8 gusting 18 25.6
2014-Sep-01 18:47 145 10 gusting 15 25.6
2014-Sep-01 18:37 142 8 gusting 14 25.6
2014-Sep-01 18:27 138 8 gusting 17 25.6
2014-Sep-01 18:17 155 8 gusting 15 25.6
2014-Sep-01 18:07 136 10 gusting 15 25.6
2014-Sep-01 17:57 121 7 gusting 17 25.6
2014-Sep-01 17:47 130 11 gusting 14 25.6
2014-Sep-01 17:37 129 7 gusting 13 25.6
2014-Sep-01 17:27 134 7 gusting 14 25.6
2014-Sep-01 17:17 147 8 gusting 14 25.6
2014-Sep-01 17:07 160 7 gusting 14 25.6
2014-Sep-01 16:47 170 6 gusting 12 26.1
2014-Sep-01 16:37 145 6 gusting 14 26.1
2014-Sep-01 16:27 143 6 gusting 12 26.1
2014-Sep-01 16:17 135 5 gusting 14 26.1
2014-Sep-01 16:07 163 5 gusting 13 26.7
2014-Sep-01 15:57 147 8 gusting 12 26.7
2014-Sep-01 15:47 137 6 gusting 11 26.7
2014-Sep-01 15:37 159 6 gusting 17 27.2
2014-Sep-01 15:27 152 6 gusting 13 27.2
2014-Sep-01 15:17 133 6 gusting 14 27.2
2014-Sep-01 15:07 153 6 gusting 13 27.2
2014-Sep-01 14:57 160 6 gusting 13 27.8
2014-Sep-01 14:47 149 6 gusting 13 27.8
2014-Sep-01 14:37 141 6 gusting 11 27.8
2014-Sep-01 14:27 143 8 gusting 15 27.8
2014-Sep-01 14:17 153 11 gusting 17 28.3
2014-Sep-01 14:07 143 9 gusting 15 28.3
2014-Sep-01 13:57 133 6 gusting 13 28.3
2014-Sep-01 13:47 140 6 gusting 14 28.3
2014-Sep-01 13:37 156 6 gusting 17 28.3
2014-Sep-01 13:27 150 12 gusting 17 28.3
2014-Sep-01 13:17 123 9 gusting 15 28.3
2014-Sep-01 13:07 144 8 gusting 15 28.3
2014-Sep-01 12:57 156 6 gusting 13 28.3
2014-Sep-01 12:47 135 7 gusting 14 28.3
2014-Sep-01 12:37 144 7 gusting 18 28.3
2014-Sep-01 12:27 143 7 gusting 13 28.3
2014-Sep-01 12:17 133 8 gusting 14 28.3
2014-Sep-01 12:07 145 7 gusting 17 28.3
2014-Sep-01 11:57 141 10 gusting 14 28.3
2014-Sep-01 11:47 139 10 gusting 19 28.3
2014-Sep-01 11:37 153 5 gusting 18 28.3
2014-Sep-01 11:27 135 7 gusting 13 28.3
2014-Sep-01 11:17 161 10 gusting 13 28.3
2014-Sep-01 11:07 149 7 gusting 18 28.3
2014-Sep-01 10:57 149 6 gusting 14 28.3
2014-Sep-01 10:47 161 7 gusting 13 28.3
2014-Sep-01 10:37 158 6 gusting 13 27.8
2014-Sep-01 10:27 156 8 gusting 13 27.8
2014-Sep-01 10:17 131 7 gusting 13 27.8
2014-Sep-01 10:07 143 8 gusting 13 27.2
2014-Sep-01 09:57 120 10 gusting 14 27.2
2014-Sep-01 09:47 139 8 gusting 14 27.2
2014-Sep-01 09:37 133 9 gusting 15 27.2
2014-Sep-01 09:27 145 6 gusting 13 27.2
2014-Sep-01 09:17 138 7 gusting 12 27.2
2014-Sep-01 09:07 141 6 gusting 14 27.2
2014-Sep-01 08:57 135 9 gusting 15 27.2
2014-Sep-01 08:47 142 7 gusting 12 26.7
2014-Sep-01 08:37 134 6 gusting 12 26.7
2014-Sep-01 08:27 148 6 gusting 11 26.7
2014-Sep-01 08:17 135 10 gusting 13 26.1
2014-Sep-01 08:07 140 6 gusting 12 26.1
2014-Sep-01 07:57 135 6 gusting 12 25.6
2014-Sep-01 07:47 133 6 gusting 11 25.6
2014-Sep-01 07:37 127 4 gusting 10 25.6
2014-Sep-01 07:27 151 5 gusting 10 25.6
2014-Sep-01 07:17 138 5 gusting 10 25.0
2014-Sep-01 07:07 141 4 gusting 8 25.0